Simultaneous Nadir Overpasses (SNOs) Predictions

Prediction of SNOs between NPP and PACE Satellite Orbit:

Table of predicted SNOs for the next 14.0 days since TLE Epoch: 4/17/2024
Index Date (NPP) Time (NPP) Lat,Lon (NPP) SZA (NPP ) Date (PACE) Time (PACE) Lat,Lon (PACE) SZA (PACE ) Distance(km) Time Diff (sec)
1 04/17/2024 12:19:24 79.87, -42.20 71.22 04/17/2024 12:19:16 79.88, -42.32 71.24 2.35 8
2 04/19/2024 16:45:51 79.90,-109.09 70.50 04/19/2024 16:45:44 79.90,-109.09 70.50 0.15 7
3 04/21/2024 21:12:16 79.88,-175.46 69.71 04/21/2024 21:12:10 79.88,-175.57 69.73 2.30 6
4 04/24/2024 01:38:41 79.86, 118.12 68.94 04/24/2024 01:38:35 79.86, 117.98 68.96 2.94 6
5 04/26/2024 06:05:07 79.87, 51.35 68.26 04/26/2024 06:05:00 79.88, 51.26 68.27 1.85 7
6 04/28/2024 10:31:34 79.93, -15.77 67.66 04/28/2024 10:31:25 79.93, -15.72 67.66 1.00 9



Historial Predications of SNOs between NPP and PACE
